Torna al catalogo

INTELSAT 33E DEB

AttivoGEO
NORAD 61988·DEBRIS· XX

Lanciato Aug 24, 2016 da Guiana Space Centre

Loading…

TLE

AggiornatoSource: Space-Track

Epoca: Sep 14, 2026, 02:12 UTC

1 61988U 16053E   26257.09181519  .00000064  00000-0  00000-0 0  9993
2 61988   1.9540  90.6045 0046364 106.3194 254.9147  0.99832942  6929

Traccia INTELSAT 33E DEB in tempo reale con AllMySat

Download on the App Store